• In Uzbekistan
  • List of Countries
  • For 7 days
  • Water Temperature
  • Satellite Maps
  • Weather Map
  • Weather Widgets
  • user-avatar
    Login

    Hourly Weather Cardoso

    Today, 24 September, Monday

    Time Temperature Precipitation Wind Pressure Humidity
    00:00 +29°C° 0 mm 1 mps 724 mmHg 35%
    01:00 +28°C° 0 mm 1 mps 724 mmHg 36%
    02:00 +28°C° 0 mm 2 mps 724 mmHg 37%
    03:00 +27°C° 0 mm 2 mps 724 mmHg 41%
    04:00 +27°C° 0 mm 2 mps 724 mmHg 43%
    05:00 +26°C° 0 mm 2 mps 724 mmHg 45%
    06:00 +25°C° 0 mm 2 mps 723 mmHg 47%
    07:00 +27°C° 0 mm 2 mps 724 mmHg 44%
    08:00 +29°C° 0 mm 2 mps 725 mmHg 41%
    09:00 +32°C° 0 mm 2 mps 725 mmHg 42%
    10:00 +35°C° 0 mm 3 mps 725 mmHg 37%
    11:00 +37°C° 0 mm 3 mps 725 mmHg 32%
    12:00 +38°C° 0 mm 3 mps 724 mmHg 27%
    13:00 +39°C° 0 mm 2 mps 724 mmHg 25%
    14:00 +40°C° 0 mm 2 mps 724 mmHg 23%
    15:00 +40°C° 0 mm 2 mps 724 mmHg 21%
    16:00 +39°C° 0 mm 2 mps 723 mmHg 24%
    17:00 +36°C° 0 mm 1 mps 723 mmHg 27%
    18:00 +35°C° 0 mm 1 mps 723 mmHg 30%
    19:00 +34°C° 0 mm 1 mps 723 mmHg 31%
    20:00 +34°C° 0 mm 2 mps 723 mmHg 32%
    21:00 +32°C° 0 mm 2 mps 723 mmHg 33%
    22:00 +31°C° 0 mm 2 mps 724 mmHg 34%
    23:00 +31°C° 0 mm 2 mps 724 mmHg 35%

    Tomorrow, 25 September, Tuesday

    Time Temperature Precipitation Wind Pressure Humidity
    00:00 +30°C° 0 mm 2 mps 724 mmHg 36%
    01:00 +30°C° 0 mm 2 mps 723 mmHg 37%
    02:00 +30°C° 0 mm 2 mps 723 mmHg 37%
    03:00 +29°C° 0 mm 2 mps 723 mmHg 38%
    04:00 +29°C° 0 mm 2 mps 723 mmHg 39%
    05:00 +28°C° 0 mm 2 mps 723 mmHg 41%
    06:00 +28°C° 0 mm 2 mps 723 mmHg 42%
    07:00 +30°C° 0 mm 2 mps 723 mmHg 40%
    08:00 +31°C° 0 mm 3 mps 724 mmHg 38%
    09:00 +34°C° 0 mm 3 mps 724 mmHg 37%
    10:00 +36°C° 0 mm 3 mps 724 mmHg 32%
    11:00 +38°C° 0 mm 3 mps 724 mmHg 28%
    12:00 +40°C° 0 mm 3 mps 724 mmHg 23%
    13:00 +40°C° 0 mm 3 mps 723 mmHg 23%
    14:00 +40°C° 0 mm 2 mps 723 mmHg 23%
    15:00 +40°C° 0 mm 2 mps 722 mmHg 22%
    16:00 +39°C° 0 mm 1 mps 722 mmHg 26%
    17:00 +36°C° 0 mm 1 mps 722 mmHg 29%
    18:00 +35°C° 0 mm 1 mps 722 mmHg 32%
    19:00 +34°C° 0 mm 1 mps 722 mmHg 32%
    20:00 +34°C° 0 mm 1 mps 722 mmHg 32%
    21:00 +33°C° 0 mm 1 mps 723 mmHg 33%
    22:00 +32°C° 0 mm 1 mps 723 mmHg 34%
    23:00 +32°C° 0 mm 1 mps 723 mmHg 35%

    Day after tomorrow, 26 September, Wednesday

    Time Temperature Precipitation Wind Pressure Humidity
    00:00 +32°C° 0 mm 2 mps 722 mmHg 36%
    01:00 +31°C° 0 mm 2 mps 722 mmHg 36%
    02:00 +31°C° 0 mm 2 mps 722 mmHg 37%
    03:00 +31°C° 0 mm 2 mps 721 mmHg 38%
    04:00 +30°C° 0 mm 2 mps 721 mmHg 39%
    05:00 +29°C° 0 mm 2 mps 722 mmHg 40%
    06:00 +29°C° 0 mm 2 mps 722 mmHg 42%
    07:00 +30°C° 0 mm 3 mps 722 mmHg 40%
    08:00 +32°C° 0 mm 4 mps 723 mmHg 39%
    09:00 +33°C° 0 mm 5 mps 724 mmHg 38%
    10:00 +35°C° 0 mm 5 mps 724 mmHg 34%
    11:00 +36°C° 0 mm 5 mps 724 mmHg 31%
    12:00 +39°C° 0 mm 5 mps 724 mmHg 27%
    13:00 +38°C° 0 mm 4 mps 723 mmHg 26%
    14:00 +39°C° 0 mm 3 mps 722 mmHg 25%
    15:00 +39°C° 0 mm 3 mps 721 mmHg 24%
    16:00 +38°C° 0 mm 2 mps 721 mmHg 27%
    17:00 +37°C° 0 mm 2 mps 721 mmHg 30%
    18:00 +35°C° 0 mm 1 mps 721 mmHg 32%
    19:00 +34°C° 0 mm 1 mps 721 mmHg 33%
    20:00 +33°C° 0 mm 1 mps 721 mmHg 33%
    21:00 +32°C° 0 mm 1 mps 722 mmHg 33%
    22:00 +32°C° 0 mm 1 mps 722 mmHg 34%
    23:00 +32°C° 0 mm 1 mps 723 mmHg 35%

    27 September, Thursday

    Time Temperature Precipitation Wind Pressure Humidity
    00:00 +31°C° 0 mm 1 mps 723 mmHg 37%
    01:00 +30°C° 0 mm 3 mps 723 mmHg 44%
    02:00 +29°C° 0 mm 4 mps 722 mmHg 51%
    03:00 +28°C° 0 mm 6 mps 722 mmHg 58%
    04:00 +27°C° 0.1 mm 5 mps 723 mmHg 61%
    05:00 +27°C° 0.1 mm 5 mps 723 mmHg 64%
    06:00 +26°C° 0.1 mm 4 mps 723 mmHg 67%
    07:00 +27°C° 0 mm 5 mps 724 mmHg 64%
    08:00 +28°C° 0 mm 5 mps 724 mmHg 62%
    09:00 +29°C° 0 mm 5 mps 724 mmHg 59%
    10:00 +32°C° 0 mm 5 mps 724 mmHg 52%
    11:00 +34°C° 0 mm 4 mps 724 mmHg 45%
    12:00 +36°C° 0 mm 4 mps 724 mmHg 39%
    13:00 +36°C° 0 mm 3 mps 723 mmHg 38%
    14:00 +36°C° 0 mm 2 mps 722 mmHg 37%
    15:00 +36°C° 0 mm 2 mps 721 mmHg 37%
    16:00 +35°C° 0.1 mm 2 mps 721 mmHg 39%
    17:00 +34°C° 0.1 mm 2 mps 721 mmHg 42%
    18:00 +32°C° 0.1 mm 2 mps 722 mmHg 44%
    19:00 +31°C° 0.3 mm 3 mps 722 mmHg 47%
    20:00 +30°C° 0.3 mm 3 mps 723 mmHg 50%
    21:00 +29°C° 0.3 mm 4 mps 723 mmHg 53%
    22:00 +29°C° 0.9 mm 3 mps 724 mmHg 61%
    23:00 +28°C° 0.9 mm 3 mps 724 mmHg 68%

    28 September, Friday

    Time Temperature Precipitation Wind Pressure Humidity
    00:00 +27°C° 0.9 mm 3 mps 724 mmHg 76%
    01:00 +26°C° 0.1 mm 3 mps 724 mmHg 77%
    02:00 +26°C° 0.1 mm 2 mps 723 mmHg 78%
    03:00 +26°C° 0.1 mm 2 mps 723 mmHg 79%
    04:00 +26°C° 0 mm 2 mps 723 mmHg 78%
    05:00 +26°C° 0 mm 2 mps 723 mmHg 78%
    06:00 +26°C° 0 mm 3 mps 723 mmHg 78%
    07:00 +27°C° 0 mm 3 mps 724 mmHg 74%
    08:00 +28°C° 0 mm 3 mps 724 mmHg 69%
    09:00 +29°C° 0 mm 3 mps 725 mmHg 65%
    10:00 +31°C° 0 mm 3 mps 725 mmHg 57%
    11:00 +33°C° 0 mm 3 mps 725 mmHg 50%
    12:00 +35°C° 0 mm 3 mps 725 mmHg 42%
    13:00 +35°C° 0 mm 3 mps 724 mmHg 41%
    14:00 +36°C° 0 mm 2 mps 724 mmHg 40%
    15:00 +36°C° 0 mm 2 mps 723 mmHg 39%
    16:00 +35°C° 0 mm 2 mps 723 mmHg 42%
    17:00 +34°C° 0 mm 2 mps 723 mmHg 45%
    18:00 +32°C° 0 mm 2 mps 722 mmHg 48%
    19:00 +31°C° 0.1 mm 2 mps 723 mmHg 49%
    20:00 +30°C° 0.1 mm 2 mps 723 mmHg 51%
    21:00 +29°C° 0.1 mm 3 mps 723 mmHg 52%
    22:00 +29°C° 0.1 mm 3 mps 723 mmHg 55%
    23:00 +28°C° 0.1 mm 3 mps 723 mmHg 58%

    29 September, Saturday

    Time Temperature Precipitation Wind Pressure Humidity
    00:00 +27°C° 0.1 mm 3 mps 723 mmHg 61%
    01:00 +27°C° 0.3 mm 3 mps 723 mmHg 65%
    02:00 +26°C° 0.3 mm 2 mps 723 mmHg 68%
    03:00 +26°C° 0.3 mm 2 mps 723 mmHg 72%
    04:00 +25°C° 0 mm 2 mps 723 mmHg 73%
    05:00 +25°C° 0 mm 3 mps 724 mmHg 73%
    06:00 +25°C° 0 mm 3 mps 724 mmHg 74%
    07:00 +26°C° 0 mm 3 mps 724 mmHg 69%
    08:00 +27°C° 0 mm 3 mps 725 mmHg 65%
    09:00 +28°C° 0 mm 3 mps 725 mmHg 60%
    10:00 +28°C° 0.5 mm 3 mps 725 mmHg 63%
    11:00 +28°C° 0.5 mm 3 mps 725 mmHg 66%
    12:00 +27°C° 0.5 mm 3 mps 724 mmHg 68%
    13:00 +28°C° 0.1 mm 3 mps 724 mmHg 65%
    14:00 +29°C° 0.1 mm 3 mps 723 mmHg 61%
    15:00 +30°C° 0.1 mm 3 mps 722 mmHg 57%
    16:00 +29°C° 0.1 mm 2 mps 722 mmHg 60%
    17:00 +29°C° 0.1 mm 1 mps 722 mmHg 63%
    18:00 +28°C° 0.1 mm 1 mps 722 mmHg 65%
    19:00 +28°C° 0 mm 1 mps 722 mmHg 66%
    20:00 +27°C° 0 mm 1 mps 723 mmHg 66%
    21:00 +27°C° 0 mm 2 mps 723 mmHg 67%
    22:00 +27°C° 0 mm 1 mps 723 mmHg 68%
    23:00 +26°C° 0 mm 1 mps 723 mmHg 68%
    Show more